DELTA 1 DEB, 21496

Orbit data source: Space-Track

DELTA 1 DEB, 21496 is space debris in SSO originally from a launch on Thu, 12 Jun 1975 UTC launched from the Air Force Western Test Range (AFWTR). Debris objects in space refer to the collection of defunct objects orbiting the Earth. Examples of debris include non-operational satellites, rocket bodies, and fragments generated from explosions, collisions, or faulty payload assembly.

Loading next visibility...
Identifier
21496, 1975-052FR
Orbit
SSO
Country
Flag of USUS
Related business
Manufacturer
Unknown
Mission
Spacecraft
Bus & Motor
Unknown
Mass
Unknown
Launch date (UTC)
1975-06-12 (50 years ago)
Launch vehicle
Unknown
Launch site
Air Force Western Test Range (AFWTR)
Object type
Payload
Rocket body
Debris
Shape & HBR
Unknown shape, 0.1 m
Radar Cross Section
Small (<0.1 m²)

Expand to show TLE details & history
Last TLE update: 2 days ago

TLE from 2 days ago
0 DELTA 1 DEB
1 21496U 75052FR  25305.69172416  .00000088  00000-0  41134-3 0  9994
2 21496  99.8494 202.4447 0340510 176.2764 211.9205 12.82546932613367
Epoch: 2025-11-01T16:36Z
TLE epoch observation values (Epoch: 2025-11-01T16:36:04.967Z)
Latitude
25.8209°
Longitude
-92.58986°
Altitude
1,559.439 km
Speed
6.986 km/s
True Right ascension
13h 10m 35s
True Declination
25° 41' 60"
Sunlit
Object was in daylight at epoch
Visualization orbit readout
Latitude
Unknown
Longitude
Unknown
Altitude
Unknown
Speed
Unknown
Apparent Right ascension
Unknown
Apparent Declination
Unknown
Sunlit
N/A
Visualization observer readout
Local Sidereal Time
10:05:46
Azimuth
Unknown
Elevation
Unknown
Doppler factor
Unknown
Orbital elements
Apogee altitude
1,591.066 km
Perigee altitude
1,066.218 km
Semi-major axis
7,706.779 km
Eccentricity
0.03405
Inclination
99.8494°
RAAN
202.4447°
Arg. of periapsis
176.2764°
True anomaly
209.9298°
Mean anomaly
211.9205°
Eccentric anomaly
210.91806°
Mean motion
3.208 °/min
Orbital period
112.22 mins
BSTAR
0.00041134
Loading maneuver chart data...
Computing Atmospheric mass density...

Documentation

Showing up to 5 results
|